STARLINK-34110 (63811 NORAD) Tracking and Keplerian Element Data

This shows tracking and keplerian element data for the satellite.

Feedback or suggestion? Click here.




ElementValue
Catalog63811
NameSTARLINK-34110
Epoch Orbit3650
Epoch Day354.17716108
Epoch Year2025
RAAN261.6479
Inclination43.0053
Eccentricity0.0007907
Argument of Perigee243.7176
Mean Anonmoly116.2864
Mean Motion15.29161417
Decay Rate0.00070293
L11 63811U 25092H 25354.17716108 .00070293 00000+0 24179-2 0 9992
L22 63811 43.0053 261.6479 0007907 243.7176 116.2864 15.29161417 36503



Live tracking and technical data element details for STARLINK-34110 (NORAD 63811). STARLINK-34110 can be tracked NOW for your location showing map with azimuth and elevation plus other details from your city location.







IsCatalogInMostPopularTable: catalog: 63811, numindb: 2
Update: records affected: 1



GetName: 63811 STARLINK-34110

Hit Count: updated at: Tue, 10 Feb 2026 02:01:00 GMT